EW2498 Weather Reports


time (UTC)temp
F
wind
direction
speed
knots
gust
knots
rain 1hr
in
rain 24hr
in
rain mn
in
humidity
%
barometer
mb
20260505041305 79 192 1.7 6.1 0.00 0.10 0.00 83 1010.6
20260505040804 79 177 1.7 6.1 0.00 0.11 0.00 83 1010.7
20260505040304 79 169 2.6 7.0 0.00 0.11 0.00 83 1010.7
20260505035305 80 165 1.7 7.8 0.00 0.13 0.00 83 1010.9
20260505033805 80 201 0.9 1.7 0.00 0.17 0.00 83 1011.0
20260505033305 80 219 0.9 2.6 0.00 0.18 0.00 83 1011.2
20260505032805 80 226 1.7 4.3 0.00 0.18 0.00 83 1011.3
20260505032304 80 115 0.9 2.6 0.00 0.18 0.00 83 1011.4
20260505030810 80 115 0.9 4.3 0.00 0.18 0.00 83 1011.7
20260505024804 80 115 0.9 1.7 0.00 0.18 0.18 83 1012.0
20260505023305 80 115 1.7 2.6 0.00 0.18 0.18 83 1011.9
20260505021804 80 115 0.9 4.3 0.00 0.19 0.18 82 1012.1
20260505021304 80 279 0.9 2.6 0.00 0.19 0.18 82 1012.2
20260505020804 80 211 0.9 4.3 0.00 0.19 0.18 82 1012.3
20260505020305 80 215 0.0 0.0 0.00 0.19 0.18 82 1012.3
20260505013805 80 211 1.7 4.3 0.00 0.19 0.18 82 1012.4
20260505012305 80 228 0.0 0.0 0.00 0.19 0.18 81 1012.4
20260505011804 80 224 0.0 0.0 0.00 0.19 0.18 81 1012.4
20260505010304 80 216 0.9 1.7 0.00 0.19 0.18 81 1012.3
20260505005805 80 172 0.0 1.7 0.00 0.19 0.18 81 1012.3
20260505005305 80 242 0.9 2.6 0.00 0.19 0.18 81 1012.3
20260505004305 81 224 0.9 2.6 0.00 0.19 0.18 81 1012.3
20260505001804 81 225 1.7 4.3 0.00 0.19 0.18 80 1012.3
20260505000805 81 147 0.9 2.6 0.00 0.19 0.18 80 1012.2
20260504235804 81 122 0.9 1.7 0.00 0.19 0.18 79 1012.2
20260504234304 81 229 0.0 1.7 0.00 0.19 0.18 79 1011.9
20260504233305 81 266 0.9 2.6 0.00 0.19 0.18 79 1011.8
20260504231805 82 219 0.9 0.9 0.00 0.19 0.18 78 1011.6
20260504231304 82 212 0.0 0.9 0.00 0.19 0.18 78 1011.6
20260504230805 82 265 0.9 0.9 0.00 0.19 0.18 78 1011.5
20260504224805 83 266 0.9 4.3 0.00 0.19 0.18 77 1011.3
20260504224304 83 163 7.0 10.4 0.00 0.19 0.18 77 1011.2
20260504223805 83 155 7.0 11.3 0.00 0.19 0.18 77 1011.0
20260504221305 83 142 9.6 12.2 0.00 0.19 0.18 77 1010.7
20260504215305 83 147 11.3 13.9 0.00 0.19 0.18 76 1010.3
20260504213305 83 139 12.2 13.0 0.00 0.19 0.18 77 1010.1
20260504212805 83 137 11.3 13.0 0.00 0.19 0.18 76 1010.1
20260504212304 83 137 11.3 13.9 0.00 0.19 0.18 76 1010.1
20260504210805 83 136 11.3 13.0 0.00 0.19 0.18 76 1010.0
20260504210305 83 132 11.3 13.0 0.00 0.19 0.18 76 1009.9
20260504201804 84 132 11.3 12.2 0.00 0.19 0.18 75 1009.5
20260504200804 84 125 11.3 13.9 0.00 0.19 0.18 75 1009.5
20260504200304 84 120 12.2 13.0 0.00 0.19 0.18 75 1009.4
20260504194805 84 129 11.3 13.0 0.00 0.19 0.18 74 1009.2
20260504193805 84 127 12.2 13.0 0.00 0.19 0.18 74 1009.2
20260504193304 84 133 11.3 13.9 0.00 0.19 0.18 74 1009.2
20260504192804 84 124 11.3 12.2 0.00 0.19 0.18 73 1009.1
20260504191805 84 121 13.0 13.9 0.00 0.19 0.18 73 1009.0
20260504191304 84 123 12.2 13.9 0.00 0.19 0.18 73 1009.0
20260504185305 84 117 11.3 13.0 0.00 0.19 0.18 72 1009.0
20260504184805 84 116 11.3 13.9 0.00 0.19 0.18 73 1009.0
20260504183805 84 122 12.2 15.6 0.00 0.19 0.18 73 1009.0
20260504182804 84 112 13.0 13.9 0.00 0.19 0.18 73 1009.0
20260504181804 84 116 13.9 14.8 0.00 0.19 0.18 72 1009.0
20260504180304 84 117 13.9 14.8 0.00 0.19 0.18 73 1009.2
20260504175804 84 118 13.0 13.9 0.00 0.19 0.18 73 1009.1
20260504175305 84 118 13.0 13.9 0.00 0.19 0.18 73 1009.0
20260504173305 84 116 10.4 11.3 0.00 0.19 0.18 75 1009.2
20260504172305 84 120 9.6 11.3 0.00 0.19 0.18 75 1009.1
20260504171304 84 129 10.4 12.2 0.00 0.19 0.18 74 1009.2
20260504170804 84 133 11.3 12.2 0.00 0.19 0.18 75 1009.3
20260504160305 84 129 12.2 14.8 0.00 0.19 0.18 75 1010.3
20260504140305 82 166 7.8 14.8 0.00 0.16 0.15 78 1011.9
20260504130804 83 119 6.1 8.7 0.01 0.16 0.15 78 1011.9
20260504120304 82 138 8.7 11.3 0.00 0.15 0.14 79 1012.0
20260504110304 81 139 6.1 10.4 0.00 0.17 0.14 82 1011.6
20260504100304 77 117 1.7 4.3 0.00 0.18 0.14 86 1011.1
20260504080804 76 260 0.9 2.6 0.01 0.19 0.14 86 1010.0
20260504045804 79 96 11.3 13.0 0.02 0.23 0.09 84 1010.3
20260504044804 78 106 13.0 13.9 0.03 0.24 0.09 84 1010.5
20260504044304 78 112 12.2 13.9 0.04 0.24 0.09 84 1010.6
20260504043805 78 117 10.4 11.3 0.07 0.24 0.08 85 1010.6
20260504042804 78 101 10.4 12.2 0.08 0.25 0.08 85 1010.5
20260504041804 78 101 13.0 13.9 0.08 0.26 0.08 85 1010.6